Weather History for West Palm Beach, FL

Change the Weather History Date:

Monday, August 11, 2014

  Actual Average Record
Temperature  
Mean Temperature 85 °F 83 °F  
Max Temperature 93 °F 90 °F 97 °F (1987)
Min Temperature 76 °F 76 °F 70 °F (1948)
Degree Days  
Heating Degree Days 0 0  
Month to date heating degree days 0 0  
Since 1 June heating degree days 0 0  
Since 1 July heating degree days 0 0  
Cooling Degree Days 20 18  
Month to date cooling degree days 210 198  
Year to date cooling degree days 2614 2346  
Since 1 June cooling degree days 1262 1237  
Growing Degree Days 34 (Base 50)    
Moisture  
Dew Point 72 °F    
Average Humidity 73    
Maximum Humidity 94    
Minimum Humidity 52    
Precipitation  
Precipitation 0.00 in 0.27 in 4.63 in (2012)
Month to date precipitation 4.99 2.59  
Year to date precipitation 38.42 35.36  
Snow  
Snow 0.00 in - - ()
Month to date snowfall 0.0  
Since 1 June snowfall 0.0  
Since 1 July snowfall 0.0  
Snow Depth 0.00 in    
Sea Level Pressure  
Sea Level Pressure 30.02 in    
Wind  
Wind Speed 6 mph (SSW)    
Max Wind Speed 17 mph    
Max Gust Speed 24 mph    
Visibility 10 miles    
Events Thunderstorm    
T = Trace of Precipitation, MM = Missing Value Source: NWS Daily Summary

Daily Weather History Graph

Daily Weather History Graph

Search for Another Location

Airport:

Trip Planner

Search our weather history database for the weather conditions in past years. The results will help you decide how hot, cold, wet, or windy it might be!

Date:

Astronomy

Aug. 11, 2014 Rise Set
Actual Time 6:50 AM EDT 8:00 PM EDT
Civil Twilight 6:25 AM EDT 8:24 PM EDT
Nautical Twilight 5:56 AM EDT 8:53 PM EDT
Astronomical Twilight 5:26 AM EDT 9:23 PM EDT
Moon 8:41 PM EDT (8/11) 7:43 AM EDT (8/11)
Length of Visible Light 13h 59m
Length of Day
13h 10m
Full, 99% of the Moon is Illuminated
Aug 11
Full
Aug 17
Last Quarter
Aug 25
New
Sep 2
First Quarter
Sep 8
Full

Hourly Weather History & Observations

Time (EDT) Temp. Heat Index Dew Point Humidity Pressure Visibility Wind Dir Wind Speed Gust Speed Precip Events Conditions
12:53 AM 79.0 °F - 73.0 °F 82% 30.04 in 10.0 mi Calm Calm - N/A   Partly Cloudy
1:53 AM 78.1 °F - 73.0 °F 84% 30.03 in 10.0 mi SSW 4.6 mph - N/A   Partly Cloudy
2:53 AM 77.0 °F - 73.0 °F 88% 30.02 in 10.0 mi West 3.5 mph - N/A   Partly Cloudy
3:53 AM 77.0 °F - 73.0 °F 88% 30.01 in 10.0 mi West 3.5 mph - N/A   Partly Cloudy
4:53 AM 78.1 °F - 73.0 °F 84% 30.01 in 10.0 mi North - - N/A   Scattered Clouds
5:53 AM 75.9 °F - 73.0 °F 91% 30.01 in 10.0 mi Calm Calm - N/A   Scattered Clouds
6:53 AM 75.9 °F - 73.0 °F 91% 30.02 in 10.0 mi Calm Calm - N/A   Scattered Clouds
7:53 AM 78.1 °F - 73.9 °F 87% 30.04 in 10.0 mi West 3.5 mph - N/A   Scattered Clouds
8:53 AM 82.0 °F 87.4 °F 73.0 °F 74% 30.05 in 10.0 mi Calm Calm - N/A   Scattered Clouds
9:53 AM 86.0 °F 93.0 °F 73.0 °F 65% 30.06 in 10.0 mi Calm Calm - N/A   Scattered Clouds
10:53 AM 88.0 °F 94.7 °F 72.0 °F 59% 30.07 in 10.0 mi Calm Calm - N/A   Scattered Clouds
11:53 AM 89.1 °F 96.0 °F 72.0 °F 57% 30.07 in 10.0 mi WSW 5.8 mph - N/A   Scattered Clouds
12:53 PM 91.0 °F 98.2 °F 72.0 °F 53% 30.05 in 10.0 mi SW 8.1 mph - N/A   Scattered Clouds
1:53 PM 91.9 °F 99.5 °F 72.0 °F 52% 30.04 in 10.0 mi SW 10.4 mph - N/A   Scattered Clouds
2:53 PM 90.0 °F 97.9 °F 73.0 °F 57% 30.01 in 10.0 mi SE 12.7 mph - N/A   Mostly Cloudy
3:53 PM 90.0 °F 99.0 °F 73.9 °F 59% 29.99 in 10.0 mi SE 12.7 mph - N/A   Mostly Cloudy
4:53 PM 90.0 °F 96.9 °F 72.0 °F 55% 29.99 in 10.0 mi SSE 12.7 mph - N/A   Scattered Clouds
5:53 PM 89.1 °F 100.2 °F 75.9 °F 65% 29.99 in 10.0 mi SSE 12.7 mph - N/A   Mostly Cloudy
6:53 PM 88.0 °F 96.5 °F 73.9 °F 63% 29.98 in 10.0 mi SSE 11.5 mph - N/A   Scattered Clouds
7:53 PM 86.0 °F 93.0 °F 73.0 °F 65% 29.99 in 10.0 mi South 9.2 mph - N/A   Mostly Cloudy
8:35 PM 86.0 °F 93.0 °F 73.0 °F 65% 30.01 in 10.0 mi South 9.2 mph - N/A Thunderstorm Thunderstorm
8:53 PM 82.9 °F 85.4 °F 66.9 °F 58% 30.03 in 10.0 mi WNW 12.7 mph 24.2 mph N/A Thunderstorm Thunderstorm
9:16 PM 81.0 °F 83.8 °F 68.0 °F 65% 30.03 in 10.0 mi NNW 8.1 mph - N/A   Mostly Cloudy
9:53 PM 82.0 °F 85.5 °F 69.1 °F 65% 30.03 in 10.0 mi Calm Calm - N/A   Mostly Cloudy
10:53 PM 81.0 °F 84.9 °F 71.1 °F 72% 30.04 in 10.0 mi WNW 8.1 mph - N/A   Scattered Clouds
11:53 PM 81.0 °F 84.9 °F 71.1 °F 72% 30.04 in 10.0 mi ESE 3.5 mph - N/A   Scattered Clouds